CW3442 Weather Reports


Display with metric or nautical units.
time (UTC)temp
F
wind
direction
speed
MPH
gust
MPH
rain 1hr
in
rain 24hr
in
rain mn
in
humidity
%
barometer
mb
20260507073324 44 213 0.0 0.0 0.00 0.00 0.00 87 786.6
20260507070320 44 228 0.0 0.0 0.00 0.00 0.00 87 786.6
20260507063338 44 203 0.0 0.0 0.00 0.00 0.00 87 786.6
20260507060349 44 179 0.0 0.0 0.00 0.00 0.00 88 786.7
20260507053351 43 171 0.0 0.0 0.00 0.00 0.00 88 786.8
20260507050336 43 191 0.0 0.0 0.00 0.00 0.00 88 786.9
20260507043325 43 191 0.0 0.0 0.00 0.00 0.00 87 786.9
20260507040350 43 191 0.0 0.0 0.00 0.00 0.00 86 787.0
20260507033351 43 191 0.0 0.0 0.00 0.00 0.00 86 787.0
20260507030321 44 191 0.0 0.0 0.00 0.00 0.00 85 787.0
20260507023324 45 191 0.0 0.0 0.00 0.00 0.00 83 787.1
20260507020337 45 211 0.0 0.0 0.00 0.00 0.00 82 787.1
20260507013409 46 185 0.0 0.0 0.00 0.00 0.00 82 787.1
20260507010338 47 192 0.0 0.0 0.00 0.00 0.00 81 787.1
20260507003349 47 195 0.0 0.0 0.00 0.00 0.00 79 787.0
20260507000350 47 211 0.0 0.0 0.00 0.00 0.00 77 786.9
20260506233329 47 201 0.0 0.0 0.00 0.00 0.00 77 786.9
20260506230339 48 225 0.0 0.0 0.00 0.00 0.00 77 786.9
20260506223330 48 228 0.0 0.0 0.00 0.00 0.00 76 787.0
20260506220338 48 163 0.0 0.0 0.00 0.00 0.00 75 787.0
20260506213340 48 198 0.0 0.0 0.00 0.00 0.00 77 786.9
20260506210327 47 176 0.0 0.0 0.00 0.00 0.00 78 787.0
20260506203327 47 182 0.0 0.0 0.00 0.00 0.00 80 787.0
20260506200334 47 112 0.0 0.0 0.00 0.00 0.00 80 787.0
20260506193326 47 169 0.0 0.0 0.00 0.00 0.00 81 787.1
20260506190333 46 140 0.0 0.0 0.00 0.00 0.00 82 787.1
20260506183348 46 127 0.0 0.0 0.00 0.00 0.00 83 787.1
20260506180326 45 138 0.0 0.0 0.00 0.00 0.00 85 787.2
20260506173344 45 103 0.0 0.0 0.00 0.00 0.00 88 787.2
20260506170337 44 217 0.0 0.0 0.00 0.00 0.00 91 787.3
20260506163335 43 109 0.0 0.0 0.00 0.00 0.00 92 787.3
20260506160329 43 197 0.0 0.0 0.00 0.00 0.00 92 787.4
20260506153349 43 182 0.0 0.0 0.00 0.00 0.00 92 787.4
20260506150325 43 142 0.0 0.0 0.00 0.00 0.00 92 787.5
20260506143348 43 126 0.0 0.0 0.00 0.00 0.00 91 787.3
20260506133334 43 100 0.0 0.0 0.00 0.00 0.00 90 787.3
20260506130323 43 88 0.0 0.0 0.00 0.00 0.00 90 787.4
20260506123344 44 198 0.0 0.0 0.00 0.00 0.00 90 787.3
20260506120321 44 207 0.0 0.0 0.00 0.00 0.00 89 787.3
20260506113325 44 132 0.0 0.0 0.00 0.00 0.00 88 787.3
20260506110332 45 213 0.0 0.0 0.00 0.00 0.00 85 787.4
20260506103347 46 128 0.0 0.0 0.00 0.00 0.00 83 787.2
20260506100332 47 103 0.0 0.0 0.00 0.00 0.00 82 787.2
20260506093335 48 184 0.0 0.0 0.00 0.00 0.00 83 787.2
20260506090325 48 90 0.0 0.0 0.00 0.00 0.00 81 787.1
20260506083326 49 184 0.0 0.0 0.00 0.00 0.00 81 787.2
20260506080340 49 198 0.0 0.0 0.00 0.00 0.00 81 787.2